Location: Gazon
(48.1318°N, 1.2708°W)
Time: 22:45:48
(UTC+00:00)

MetOp-A - Pass Details

Date: 18 September 2020
Orbit: 820 x 821 km, 98.5° (Epoch: 25 October)

Event Time Altitude Azimuth Distance (km) Brightness Sun altitude
Exits shadow 20:03:47 16° 170° (S) 2,046 5.9 -19.1°
Maximum altitude 20:08:11 78° 256° (WSW) 845 4.2 -19.7°
Drops below altitude 10° 20:13:35 10° 343° (NNW) 2,429 7.2 -20.6°
Sets 20:15:57 0° 345° (NNW) 3,366 8.0 -20.9°
